This is the latest recevied weather packets stored in our database for station/object VE4GLS. If no packets are shown the sender has not sent any weather packets the latest 10 day(s).
| Time | Temp. | Humidity | Pressure | Rain* | Wind** | Luminosity | Snow |
|---|---|---|---|---|---|---|---|
| 1778107174 | 8.89° C | 39% | 1010.9 hPa | 0 mm | - | - | - |
| 1778106755 | 8.89° C | 38% | 1011 hPa | 0 mm | - | - | - |
| 1778106574 | 8.89° C | 38% | 1011 hPa | 0 mm | - | - | - |
| 1778105974 | 8.89° C | 38% | 1011.1 hPa | 0 mm | - | - | - |
| 1778105854 | 8.89° C | 37% | 1011.1 hPa | 0 mm | - | - | - |
| 1778105373 | 8.89° C | 38% | 1011.2 hPa | 0 mm | - | - | - |
| 1778104955 | 8.89° C | 37% | 1011.3 hPa | 0 mm | - | - | - |
| 1778104775 | 8.89° C | 37% | 1011.3 hPa | 0 mm | - | - | - |
| 1778104175 | 9.44° C | 38% | 1011.4 hPa | 0 mm | - | - | - |
| 1778104055 | 8.89° C | 38% | 1011.5 hPa | 0 mm | - | - | - |
| 1778103574 | 8.89° C | 39% | 1011.5 hPa | 0 mm | - | - | - |
| 1778103155 | 8.89° C | 40% | 1011.8 hPa | 0 mm | - | - | - |
| 1778102973 | 8.89° C | 40% | 1011.7 hPa | 0 mm | - | - | - |
| 1778102373 | 8.33° C | 42% | 1011.9 hPa | 0 mm | - | - | - |
| 1778102255 | 8.33° C | 42% | 1011.9 hPa | 0 mm | - | - | - |
| 1778101774 | 8.33° C | 44% | 1011.9 hPa | 0 mm | - | - | - |
| 1778101356 | 7.78° C | 45% | 1012 hPa | 0 mm | - | - | - |
| 1778101174 | 8.33° C | 44% | 1012 hPa | 0 mm | - | - | - |
| 1778100573 | 7.78° C | 46% | 1012 hPa | 0 mm | - | - | - |
| 1778100455 | 7.78° C | 45% | 1012 hPa | 0 mm | - | - | - |
| 1778099973 | 8.33° C | 45% | 1012.1 hPa | 0 mm | - | - | - |
| 1778099555 | 8.33° C | 45% | 1012.2 hPa | 0 mm | - | - | - |
| 1778099375 | 8.33° C | 44% | 1012.3 hPa | 0 mm | - | - | - |
| 1778098775 | 7.78° C | 47% | 1012.2 hPa | 0 mm | - | - | - |
| 1778098655 | 7.78° C | 46% | 1012.3 hPa | 0 mm | - | - | - |
* Rain latest hour (hover to see other rain measurements)
** Current wind speed in m/s (hover to see current wind gust speed)